Volver al catálogo

ONEWEB-0673

ActivoComunicacionesPO
NORAD 55832·PAYLOAD·🇬🇧 United Kingdom

Lanzado Mar 9, 2023 desde Cape Canaveral Space Force Station

Loading…

Próximos Pases (próximas 24 horas)

TLE

ActualizadoSource: CelesTrak SupGP

Época: Sep 14, 2026, 16:03 UTC

1 55832C 23029AN  26257.66891618 -.00002503  00000+0 -62600-2 0  2570
2 55832  87.9109 287.1449 0002079  92.8738 328.3435 13.19728625    12

Sigue ONEWEB-0673 en tiempo real con AllMySat

Download on the App Store